This is the latest recevied weather packets stored in our database for station/object WA7CUG. If no packets are shown the sender has not sent any weather packets the latest 10 day(s).
| Time | Temp. | Humidity | Pressure | Rain* | Wind** | Luminosity | Snow |
|---|---|---|---|---|---|---|---|
| 1778176383 | 21.67° C | 40% | 1015 hPa | 0 mm | - | 576 W/m² | - |
| 1778176080 | 21.67° C | 40% | 1015 hPa | 0 mm | - | 568 W/m² | - |
| 1778175778 | 21.67° C | 37% | 1015 hPa | 0 mm | - | 560 W/m² | - |
| 1778175476 | 21.67° C | 38% | 1014.9 hPa | 0 mm | - | 552 W/m² | - |
| 1778175173 | 21.67° C | 37% | 1015.3 hPa | 0 mm | - | 543 W/m² | - |
| 1778174869 | 21.67° C | 40% | 1014.8 hPa | 0 mm | - | 532 W/m² | - |
| 1778174566 | 21.11° C | 39% | 1014.9 hPa | 0 mm | - | 525 W/m² | - |
| 1778174261 | 21.11° C | 40% | 1015.2 hPa | 0 mm | - | 516 W/m² | - |
| 1778173959 | 20.56° C | 40% | 1015 hPa | 0 mm | - | 507 W/m² | - |
| 1778173655 | 20.56° C | 40% | 1015 hPa | 0 mm | - | 498 W/m² | - |
| 1778173352 | 20.56° C | 41% | 1014.7 hPa | 0 mm | - | 488 W/m² | - |
| 1778173048 | 20.56° C | 41% | 1015 hPa | 0 mm | - | 478 W/m² | - |
| 1778172744 | 20.56° C | 41% | 1015.2 hPa | 0 mm | - | 467 W/m² | - |
| 1778172440 | 20° C | 42% | 1015 hPa | 0 mm | - | 458 W/m² | - |
| 1778172138 | 20° C | 44% | 1015.3 hPa | 0 mm | - | 448 W/m² | - |
| 1778171835 | 20° C | 42% | 1015.3 hPa | 0 mm | - | 437 W/m² | - |
| 1778171533 | 20° C | 44% | 1015 hPa | 0 mm | - | 425 W/m² | - |
| 1778171228 | 19.44° C | 44% | 1015 hPa | 0 mm | - | 415 W/m² | - |
| 1778170924 | 20° C | 44% | 1015.5 hPa | 0 mm | - | 401 W/m² | - |
| 1778170621 | 19.44° C | 47% | 1015 hPa | 0 mm | - | 390 W/m² | - |
| 1778170317 | 19.44° C | 45% | 1015.4 hPa | 0 mm | - | 378 W/m² | - |
| 1778170014 | 19.44° C | 47% | 1015.4 hPa | 0 mm | - | 366 W/m² | - |
| 1778169711 | 18.89° C | 47% | 1015.3 hPa | 0 mm | - | 354 W/m² | - |
| 1778169406 | 18.89° C | 47% | 1015.6 hPa | 0 mm | - | 340 W/m² | - |
| 1778169103 | 18.89° C | 49% | 1015.7 hPa | 0 mm | - | 326 W/m² | - |
* Rain latest hour (hover to see other rain measurements)
** Current wind speed in m/s (hover to see current wind gust speed)